Location: Dötzum
(52.0808°N, 9.8063°E)
Time: 05:35:36
(UTC+00:00)

SME Rocket - Pass Details

Date: 27 May 2022
Orbit: 550 x 2650 km, 99.9° (Epoch: 26 June)

Event Time Altitude Azimuth Distance (km) Brightness Sun altitude
Exits shadow 01:03:31 20° 193° (SSW) 1,466 4.4 -13.1°
Maximum altitude 01:06:12 48° 261° (W) 917 3.7 -12.9°
Drops below altitude 10° 01:11:29 10° 336° (NNW) 2,614 6.8 -12.6°
Sets 01:14:29 0° 342° (NNW) 3,854 7.8 -12.4°
